Location: Oberwangen
(47.4286°N, 8.9679°E)
Time: 23:41:12
(UTC+00:00)

Cosmos 1626 - Pass Details

Date: 20 June 2021
Orbit: 489 x 492 km, 82.5° (Epoch: 23 July)

Event Time Altitude Azimuth Distance (km) Brightness Sun altitude
Exits shadow 21:29:26 - 219° (SW) 2,396 5.3 -14.4°
Reaches altitude 10° 21:31:23 10° 231° (SW) 1,685 4.7 -14.6°
Maximum altitude 21:34:27 25° 288° (WNW) 1,046 4.2 -14.8°
Drops below altitude 10° 21:37:33 10° 345° (NNW) 1,698 6.2 -15.1°
Sets 21:39:58 0° 359° (N) 2,587 7.0 -15.2°
